Regional Weather Roundup
Issued by NWS

Home | Current Version | Previous Version | Graphics & Text | Print | Product List | Glossary On
Versions: 1 2 3 4 5 6 7 8 9 10 11 12 13 14 15 16 17 18 19 20 21 22 23 24 25 26 27 28 29 30 31 32 33 34 35 36 37 38 39 40 41 42 43 44 45 46 47 48 49 50
000
ASUS43 KDMX 300507
RWRIA

WEATHER ROUNDUP FOR IOWA
NATIONAL WEATHER SERVICE DES MOINES IA
1200 AM CDT WED JUL 30 2014

NOTE: "FAIR" INDICATES FEW OR NO CLOUDS BELOW 12,000 FEET WITH NO
SIGNIFICANT WEATHER AND/OR OBSTRUCTIONS TO VISIBILITY.

* - THESE STATIONS ARE NOT NWS STATIONS...THUS NOT UNDER NWS
QUALITY CONTROL.  THEY ALSO DO NOT REPORT WEATHER SUCH
AS PRECIPITATION OR FOG.

IAZ001>003-012>014-020>022-031>034-043>046-300600-
   NORTHWEST IOWA

CITY           SKY/WX    TMP DP  RH WIND       PRES   REMARKS
CARROLL *      CLEAR     55  54  94 W5        30.12S
CHEROKEE *     CLEAR     57  57 100 CALM      30.13S
DENISON *      CLEAR     55  55 100 CALM      30.12S
LE MARS *      CLEAR     55  54  94 CALM      30.14S
ORANGE CITY *  CLEAR     64  54  68 CALM      30.14S
SHELDON *      CLEAR     55  54  94 CALM      30.13S
SIOUX CITY     CLEAR     58  55  90 CALM      30.14S
SPENCER        CLEAR     56  55  97 NW5       30.13S
STORM LAKE *   CLEAR     59  57  94 NW7       30.14S
$$

IAZ055>058-069>071-079>083-090>094-300600-
   SOUTHWEST IOWA

CITY           SKY/WX    TMP DP  RH WIND       PRES   REMARKS
ATLANTIC *     CLEAR     57  55  94 CALM      30.13R
AUDUBON *      CLEAR     55  52  88 CALM      30.14S
CLARINDA *     CLEAR     57  54  88 CALM      30.14S
COUNCIL BLFS *   N/A     61  59  94 CALM      30.12F
CRESTON *      CLEAR     61  55  82 NW5       30.13S
HARLAN  *      CLEAR     55  55 100 CALM      30.17R
LAMONI         CLEAR     60  56  86 NW3       30.12S
RED OAK *      CLEAR     57  54  88 CALM      30.13S
SHENANDOAH *   CLEAR     59  57  94 CALM      30.14S
$$

IAZ047>049-059>061-072>074-084-300600-
   CENTRAL IOWA

CITY           SKY/WX    TMP DP  RH WIND       PRES   REMARKS
AMES           CLEAR     58  56  93 CALM      30.10S
ANKENY *       CLEAR     59  57  94 CALM      30.11R
CHARITON *     CLEAR     63  55  77 NW6       30.11S
DES MOINES     CLEAR     65  56  72 W5        30.10S
GRINNELL*      CLEAR     59  55  88 NW3       30.10S
KNOXVILLE *    PTCLDY    61  55  82 W6        30.09S
MARSHALLTOWN   CLEAR     59  57  93 W5        30.09S
PELLA *        CLEAR     63  56  80 N3        30.11S
PERRY *          N/A     57  57 100 NW5       30.11S
$$

IAZ004>006-015-016-023>025-035-036-300600-
   NORTH CENTRAL IOWA

CITY           SKY/WX    TMP DP  RH WIND       PRES   REMARKS
ALGONA *       CLEAR     59  57  94 NW6       30.12R
CLARION *      CLEAR     57  57 100 CALM      30.11S
ESTHERVILLE    CLEAR     57  54  89 W7        30.12S
FORT DODGE *   CLEAR     57  54  88 CALM      30.12S
MASON CITY     CLEAR     57  54  89 W6        30.11F
FOREST CITY *  CLEAR     57  55  94 CALM      30.10F
IOWA FALLS *     N/A     57  55  94 W3        30.11S
$$

IAZ007>011-017>019-026>030-037>042-050>054-066-300600-
   NORTHEAST IOWA

CITY           SKY/WX    TMP DP  RH WIND       PRES   REMARKS
CEDAR RAPIDS   CLEAR     61  53  75 NW5       30.07S
CHARLES CITY * CLEAR     59  55  88 W5        30.09S
CLINTON *      CLEAR     61  55  82 NE5       30.09R
DECORAH *      CLOUDY    63  59  88 CALM      30.07F
DUBUQUE        CLEAR     59  56  89 CALM      30.07F
MONTICELLO *   CLEAR     63  59  88 NE5       30.07R
OELWEIN *      CLEAR     59  55  88 W7        30.08F
WATERLOO       CLEAR     61  56  83 NW3       30.07F
$$

IAZ064-065-067-068-078-300600-
   EAST CENTRAL IOWA

CITY           SKY/WX    TMP DP  RH WIND       PRES   REMARKS
DAVENPORT      CLEAR     59  56  89 W8        30.06S
IOWA CITY      CLEAR     61  58  90 CALM      30.08S
MT. PLEASANT * CLEAR     63  57  82 W5        30.08S
MUSCATINE *    PTCLDY    64  57  77 W7        30.07R
QUAD CITIES    CLEAR     63  58  83 W5        30.05S
$$

IAZ062-063-075>077-085>089-095>099-300600-
   SOUTHEAST IOWA

CITY           SKY/WX    TMP DP  RH WIND       PRES   REMARKS
BURLINGTON     CLEAR     60  58  92 W3        30.08R
FAIRFIELD *    CLEAR     61  57  88 W5        30.09S
FORT MADISON * CLEAR     64  61  88 W3        30.09S
KEOKUK *       CLEAR     61  59  94 W3        30.08R
OSKALOOSA *      N/A     61  57  88 W3        30.10S
CENTERVILLE *  CLEAR     55  55 100 CALM      30.12S
OTTUMWA        CLEAR     59  56  89 W3        30.09S
WASHINGTON *     N/A     61  59  94 W5        30.08S
$$

ABBREVIATIONS USED IN REMARKS
   TC - TEMPERATURES IN CELSIUS
  WCI - WIND CHILL INDEX
   HX - HEAT INDEX
  VSB - VISIBILITY
$$



USA.gov is the U.S. government's official web portal to all federal, state and local government web resources and services.